Regional Weather Roundup
Issued by NWS Kansas City/Pleasant Hill, MO

Home | Current Version | Previous Version | Graphics & Text | Print | Product List | Glossary Off
Versions: 1 2 3 4 5 6 7 8 9 10 11 12 13 14 15 16 17 18 19 20 21 22 23 24 25 26 27

000
ASUS43 KEAX 090610
RWREAX

WEATHER ROUNDUP FOR EASTERN KANSAS AND NORTHWEST MISSOURI
NATIONAL WEATHER SERVICE KANSAS CITY/PLEASANT HILL MO
1200 AM CST FRI DEC 09 2016

KSZ040-057-103>105-MOZ028-029-037-043-090700-
...KANSAS CITY METROPOLITAN AREA...

CITY           SKY/WX    TMP DP  RH WIND       PRES   REMARKS
K.C. INTL      CLEAR     15   7  70 NW6       30.64S WCI   6
6HR MIN TEMP:  15; 6HR MAX TEMP:  20;

K.C. DOWNTOWN  CLEAR     20  10  65 CALM      30.66S
6HR MIN TEMP:  19; 6HR MAX TEMP:  24;

LEES SUMMIT    CLEAR     18   9  68 W5        30.64S WCI  11
6HR MIN TEMP:  17; 6HR MAX TEMP:  21;

OLATHE - IXD   CLEAR     16   9  74 W3        30.65S
6HR MIN TEMP:  15; 6HR MAX TEMP:  20;

OLATHE - OJC   CLEAR     16   9  74 W3        30.64S
6HR MIN TEMP:  16; 6HR MAX TEMP:  21;

LAWRENCE       CLEAR      9   6  88 NW6       30.67S WCI  -1

$$

MOZ001>008-011>017-020>025-030>033-038>040-044>046-053-054-090700-
...NORTHERN AND CENTRAL MISSOURI...

CITY           SKY/WX    TMP DP  RH WIND       PRES   REMARKS
ST. JOSEPH     CLEAR     14   7  73 CALM      30.66S
6HR MIN TEMP:  13; 6HR MAX TEMP:  18;

MOSBY          CLEAR     14  12  92 CALM      30.65S
WARRENSBURG    CLEAR     18  10  73 CALM      30.65F
WHITEMAN AFB   PTCLDY    16  11  80 W5        30.63F WCI   9
6HR MIN TEMP:  16; 6HR MAX TEMP:  22;

CLINTON        CLEAR     18  10  73 CALM      30.65F
SEDALIA        CLEAR     18  10  71 W6        30.64S WCI  10
6HR MIN TEMP:  18; 6HR MAX TEMP:  23;

WARSAW         NOT AVBL
CHILLICOTHE      N/A     18   9  68 VRB3      30.64F
6HR MIN TEMP:  17; 6HR MAX TEMP:  23;

KIRKSVILLE     CLEAR     15   9  76 NW7       30.59S WCI   5
6HR MIN TEMP:  15; 6HR MAX TEMP:  19;


$$

MOZ041-047>049-056>058-063>065-088>090-097-090700-
...EASTERN AND SOUTHERN MISSOURI...

CITY           SKY/WX    TMP DP  RH WIND       PRES   REMARKS
ST. LOUIS INTL CLEAR     21  11  65 W6        30.59S WCI  13
6HR MIN TEMP:  21; 6HR MAX TEMP:  27;

SPIRIT OF STL  CLEAR     21  13  71 W9        30.61R WCI  11
COLUMBIA       CLEAR     18  11  74 NW8       30.61S WCI   8
JEFFERSON CITY CLEAR     19  11  70 NW5       30.64S WCI  12
ROLLA          CLEAR     17  11  77 W7        30.58R WCI   8
OSAGE BEACH    CLEAR     20  11  68 NW7       30.63F WCI  11
SPRINGFIELD    CLEAR     16  10  77 NW5       30.61R WCI   9
BRANSON        CLEAR     19  12  73 NW6       30.63R WCI  11
JOPLIN         CLEAR     15  12  88 W3        30.67S
WEST PLAINS    CLEAR     20  12  71 N6        30.59R WCI  12

$$

IAZ060-094-KSZ022-034>040-054-083-096-NEZ052-066-093-090700-
...KANSAS...SOUTHEAST NEBRASKA AND IOWA...

CITY           SKY/WX    TMP DP  RH WIND       PRES   REMARKS
TOPEKA         CLEAR     15   9  76 W5        30.67S WCI   8
6HR MIN TEMP:  14; 6HR MAX TEMP:  22;

MANHATTAN      CLEAR     12   7  80 SW3       30.68R
EMPORIA        CLEAR     13   9  84 W5        30.65S WCI   5
CHANUTE        CLEAR     16  10  77 NW5       30.67S WCI   9
WICHITA        CLEAR     17   9  70 CALM      30.65S
OMAHA          CLEAR     12   4  70 NW7       30.65S WCI   1
LINCOLN        CLEAR      8   3  80 CALM      30.67R
FALLS CITY     CLEAR     11   6  81 NW6       30.65S WCI   1
LAMONI         CLEAR     12   7  80 NW9       30.59S WCI   0
DES MOINES     PTCLDY    16   8  71 NW13      30.59S WCI   2

$$





USA.gov is the U.S. government's official web portal to all federal, state and local government web resources and services.